EHI
0 0 0 0 0 0 0 0 0 0 0 0 0 0 0 0 0 0 0 0 0 0 0 0 0 0 0 0 0 0 0 0 0 0 0 0 0 0
0 0 0 0 0 0 0 0 0 0 0 0 0 0 0 0 0 0 0 0 0 0 0 0 0 0 0 0 0 0 0 0 0 0 0 0 0 0
0 0 0 0 0 0 0 0 0 0 0 0 0 0 0 0 0 0 0 0 0 0 0 0 0 0 0 0 0 0 0 0 0 0 0 0 0 0
0 0 0 0 0 0 0 0 0 0 0 0 0 0 0 0 0 0 0 0 0 0 0 0 0 0 0 0 0 0 0 0 0 0 0 0 0 0
0 0 0 0 0 0 0 0 0 0 0 0 0 0 0 0 0 0 0 0 0 0 0 0 0 0 0 0 0 0 0 0 0 0 0 0 0 0
0 0 0 0 0 0 0 0 0 0 0 0 0 0 0 0 0 0 0 0 0 0 0 0 0 0 0 0 0 0 0 0 0 0 0 0 0 0
0 0 0 0 0 0 0 0 0 0 0 0 0 0 0 0 0 0 0 0 0 0 0 0 0 0 0 0 0 0 0 0 0 0 0 0 0 0
0 0 0 0 0 0 0 0 0 0 0 0 0 0 0 0 0 0 0 0 0 0 0 0 0 0 0 0 0 0 0 0 0 0 0 0 0 0
0 0 0 0 0 0 0 0 0 0 0 0 0 0 0 0 0 0 0 0 0 0 0 0 0 0 0 0 0 0 0 0 0 0 0 0 0 0
0 0 0 0 0 0 0 0 0 0 0 0 0 0 0 0 0 0 0 0 0 0 0 0 0 0 0 0 0 0 0 0 0 0 0 0 0 0
0 0 0 0 0 0 0 0 0 0 0 0 0 0 0 0 0 0 0 0 0 0 0 0 0 0 0 0 0 0 0 0 0 0 0 0 0 0
0 0 0 0 0 0 0 0 0 0 0 0 0 0 0 0 0 0 0 0 0 0 0 0 0 0 0 0 0 0 0 0 0 0 0 0 0 0
0 0 0 0 0 0 0 0 0 0 0 0 0 0 0 0 0 0 0 0 0 0 0 0 0 0 0 0 0 0 0 0 0 0 0 0 0 0
0 0 0 0 0 0 0 0 0 0 0 0 0 0 0 0 0 0 0 0 0 0 0 0 0 0 0 0 0 0 0 0 0 0 0 0 0 0
0 0 0 0 0 0 0 0 0 0 0 0 0 0 0 0 0 0 0 0 0 0 0 0 0 0 0 0 0 0 0 0 0 0 0 0 0 0
0 0 0 0 0 0 0 0 0 0 0 0 0 0 0 0 0 0 0 0 0 0 0 0 0 0 0 0 0 0 0 0 0 0 0 0 0 0
0 0 0 0 0 0 0 0 0 0 0 0 0 0 0 0 0 0 0 0 0 0 0 0 0 0 0 0 0 0 0 0 0 0 0 0 0 0
0 0 0 0 0 0 0 0 0 0 0 0 0 0 0 0 0 0 0 0 0 0 0 0 0 0 0 0 0 0 0 0 0 0 0 0 0 0
0 0 0 0 0 0 0 0 0 0 0 0 0 0 0 0 0 0 0 0 0 0 0 0 0 0 0 0 0 0 0 0 0 0 0 0 0 0
0 0 0 0 0 0 0 0 0 0 0 0 0 0 0 0 0 0 0 0 0 0 0 0 0 0 0 0 0 0 0 0 0 0 0 0 0 0
0 0 0 0 0 0 0 0 0 0 0 0 0 0 0 0 0 0 0 0 0 0 0 0 0 0 0 0 0 0 0 0 0 0 0 0 0 0
0 0 0 0 0 0 0 0 0 0 0 0 0 0 0 0 0 0 0 0 0 0 0 0 0 0 0 0 0 0 0 0 0 0 0 0 0 0
0 0 0 0 0 0 0 0 0 0 0 0 0 0 0 0 0 0 0 0 0 0 0 0 0 0 0 0 0 0 0 0 0 0 0 0 0 0
Wind_Speed
2 2 1 1 1 0 0 1 2 2 3 2 1 1 1 1 2 2 2 5 7 8 8 8 9 9 9 9 10 10 10 10 11 11 11 11 11 11
2 2 2 1 1 1 1 1 2 3 3 2 2 2 2 2 4 3 3 7 8 9 9 9 10 10 10 10 10 11 11 11 11 11 12 12 12 11
2 3 3 2 2 1 1 1 2 2 3 3 2 2 2 3 3 3 3 3 4 8 10 10 11 11 11 10 11 11 11 11 11 12 12 12 12 12
2 3 3 2 2 2 2 2 2 2 3 4 3 2 3 3 3 4 4 4 3 7 10 11 11 11 11 11 11 12 11 11 12 12 12 12 12 12
3 3 3 3 3 2 2 3 2 2 2 3 4 3 2 3 3 4 4 4 4 6 8 10 11 12 12 12 12 11 11 11 11 11 12 12 12 12
3 3 3 4 4 3 3 3 3 3 2 3 3 3 3 3 2 3 4 3 4 4 6 8 9 11 12 12 11 10 10 10 11 12 11 11 12 12
3 3 4 5 5 5 4 3 3 3 3 3 4 3 3 3 3 3 4 4 4 3 3 4 4 4 5 8 9 10 11 11 11 11 11 11 12 12
4 4 4 4 6 7 8 8 7 5 5 4 4 5 6 4 3 3 4 4 5 3 3 5 3 4 4 4 9 11 11 11 11 11 11 12 12 13
4 4 4 4 6 4 6 8 8 11 10 7 6 7 6 5 4 5 5 5 7 4 3 6 3 5 4 6 11 12 11 11 10 11 11 12 12 12
4 5 5 5 5 5 4 5 5 6 7 6 6 6 5 5 5 5 6 6 6 4 3 5 4 5 5 4 9 11 11 10 11 11 12 12 12 13
4 5 5 5 7 8 5 5 6 6 7 9 10 9 10 11 8 4 4 4 6 5 2 3 4 4 4 4 6 9 10 10 11 12 13 13 13 12
3 4 7 8 9 9 5 5 6 6 4 5 6 7 6 8 10 6 4 5 5 5 3 2 3 3 4 3 3 3 4 8 12 12 13 13 12 7
4 4 4 8 9 9 8 5 8 7 4 4 4 4 4 4 4 4 4 5 6 6 3 2 3 3 4 5 4 3 3 4 5 7 10 13 13 9
4 4 4 7 9 9 7 8 10 8 3 3 4 4 4 4 4 4 5 5 6 7 5 3 3 4 4 5 5 3 3 4 4 4 4 9 11 13
4 6 8 9 8 7 9 10 8 4 3 4 5 5 4 4 4 3 4 4 5 5 4 4 4 4 4 5 5 4 4 4 4 4 4 4 5 5
4 6 8 8 6 6 6 5 4 4 4 5 4 4 3 3 3 3 3 3 4 4 4 4 5 5 5 5 5 6 4 4 3 4 5 5 4 4
3 2 3 3 3 3 3 4 3 3 4 3 4 4 3 4 4 3 3 3 4 4 4 3 3 3 5 5 6 6 5 5 4 4 4 6 5 5
5 4 4 4 4 4 4 4 4 4 4 4 4 4 4 4 4 3 3 4 4 5 4 3 2 3 3 4 7 6 5 5 4 4 4 6 7 5
5 4 5 5 5 4 4 4 4 4 4 4 4 4 4 4 4 4 4 4 4 4 4 3 3 3 5 6 4 4 4 4 4 4 4 5 7 6
4 4 5 5 4 4 4 4 4 3 3 4 4 4 4 4 4 4 4 5 4 4 4 3 3 4 5 5 5 4 5 5 4 5 5 5 5 7
4 4 4 4 4 4 4 4 4 4 4 4 4 4 4 4 4 4 4 6 5 4 5 5 4 5 3 2 4 4 4 5 6 5 5 5 5 4
4 4 4 4 4 4 4 4 4 4 4 4 4 4 4 4 5 5 5 4 4 4 5 4 3 3 2 4 5 6 5 4 5 8 8 7 4 4
4 4 4 4 3 3 3 4 5 4 4 4 4 4 4 4 4 4 4 4 4 4 4 4 3 3 3 4 5 5 6 5 4 4 4 6 9 10
Wind_Direction
177 173 173 179 163 207 194 182 188 247 262 246 257 272 290 288 293 286 264 279 286 285 287 290 292 291 292 294 296 296 296 298 300 301 302 299 297 295
177 180 190 198 181 189 213 233 220 218 251 241 236 264 295 297 285 281 265 281 281 281 280 282 284 285 284 287 289 290 291 292 294 295 297 295 293 293
198 196 200 199 190 205 222 234 244 230 254 277 269 266 272 285 290 285 279 273 270 276 278 280 282 282 280 282 284 285 286 288 290 292 294 293 292 292
206 205 205 202 203 211 217 229 239 237 239 268 280 273 265 269 276 282 284 277 266 275 276 277 278 278 278 280 281 281 282 284 285 288 290 291 291 289
203 214 214 200 220 224 223 230 240 250 241 253 271 276 277 272 278 279 276 278 278 277 280 281 279 280 279 280 281 280 280 281 283 286 287 288 289 288
207 216 220 212 217 219 231 237 240 245 245 250 264 275 276 271 265 275 287 279 278 282 279 279 279 282 281 280 279 280 279 278 279 282 284 288 290 291
219 224 224 225 228 229 231 230 232 241 245 250 261 271 271 269 264 265 277 286 279 265 266 270 272 271 273 278 279 276 277 277 280 281 284 287 289 289
225 231 231 234 240 246 248 247 240 239 240 246 257 258 263 262 266 266 274 284 285 267 259 276 266 267 267 258 273 279 279 278 278 280 284 286 289 288
226 229 240 237 246 241 252 260 261 260 253 246 249 253 259 257 258 270 268 268 269 266 272 279 271 269 267 272 280 280 280 279 277 281 285 287 288 288
229 227 230 235 235 239 241 249 254 257 256 252 246 252 256 253 243 252 263 276 277 267 240 271 277 273 279 267 273 277 280 283 286 287 286 287 289 288
240 235 234 233 241 246 246 247 258 264 265 259 257 260 265 268 267 269 270 277 282 275 241 248 271 284 281 270 265 271 280 286 289 290 291 291 289 289
250 244 243 243 245 247 242 237 250 260 259 265 265 268 265 265 266 252 244 258 273 275 239 229 268 295 295 276 266 275 281 287 290 292 294 295 295 293
247 248 246 249 251 252 252 244 252 263 257 254 261 265 263 257 255 249 243 242 255 262 247 236 266 267 265 288 291 278 271 279 285 286 291 293 293 293
245 246 245 253 256 258 259 257 265 273 261 254 256 257 254 252 253 251 249 249 249 254 250 233 248 253 266 278 282 282 280 277 275 277 276 287 288 287
247 252 258 259 261 262 258 260 265 256 244 249 252 253 246 246 252 261 264 261 266 263 254 245 242 244 248 261 274 276 287 279 262 265 270 272 273 280
257 257 263 263 260 255 257 256 245 239 239 243 248 254 252 250 252 253 261 266 274 276 259 248 243 240 254 259 264 272 267 266 273 276 278 277 273 265
258 256 250 250 245 246 248 246 240 240 248 244 247 256 257 254 255 248 250 256 260 271 278 270 252 248 248 253 264 263 264 266 265 274 281 284 277 266
266 244 242 239 239 242 244 246 240 237 238 239 242 245 250 253 257 253 249 249 258 263 264 265 269 286 286 268 243 255 260 265 271 272 273 281 284 275
258 241 240 238 239 238 238 239 243 239 235 235 241 243 243 247 250 252 248 246 252 258 258 254 255 264 282 288 276 236 253 272 275 274 268 269 279 282
241 239 241 239 237 237 238 241 243 240 235 237 240 238 236 241 246 249 248 246 252 258 261 254 248 248 257 271 279 281 268 264 267 272 277 278 276 281
250 249 245 242 239 236 237 238 239 239 237 236 239 239 236 239 247 248 248 252 255 255 259 259 254 261 262 268 276 278 274 264 263 269 277 283 288 288
252 251 249 245 242 239 237 237 240 240 238 238 239 238 236 237 244 247 247 249 252 254 263 268 265 264 256 260 272 280 290 297 287 282 275 264 267 271
253 253 251 248 246 243 240 241 243 245 240 239 237 237 236 238 243 246 245 247 250 252 259 269 267 261 262 262 271 280 286 294 300 304 294 283 276 275